Hourly Data Report for March 02, 2004

TORONTO CITY
ONTARIO

43°40'00.000" N
79°24'00.000" W
112.50 m
6158355
71508
XTO

Download Data

Hourly Data (March 2004)
Hourly Data Report for March 2, 2004
TIME
LST
Temp Definition
°C
Dew Point Definition
°C
Rel Hum Definition
%
Precip. Amount Definition
mm

Wind Dir Definition
10's deg

Wind Spd Definition
km/h
Visibility Definition
km
Stn Press Definition
kPa
Hmdx Definition


Wind Chill Definition


Weather Definition


00:00 8.4 6.0 85   LegendMM LegendMM LegendMM 99.76     LegendNANA
01:00 9.0 7.0 87   LegendMM LegendMM LegendMM 99.70     LegendNANA
02:00 8.1 6.2 88   LegendMM LegendMM LegendMM 99.60     LegendNANA
03:00 8.4 6.7 89   LegendMM LegendMM LegendMM 99.51     LegendNANA
04:00 8.2 6.5 89   LegendMM LegendMM LegendMM 99.41     LegendNANA
05:00 7.9 6.8 93   LegendMM LegendMM LegendMM 99.41     LegendNANA
06:00 7.7 7.1 96   LegendMM LegendMM LegendMM 99.41     LegendNANA
07:00 7.4 6.8 96   LegendMM LegendMM LegendMM 99.40     LegendNANA
08:00 8.4 7.5 94   LegendMM LegendMM LegendMM 99.44     LegendNANA
09:00 8.6 6.6 87   LegendMM LegendMM LegendMM 99.50     LegendNANA
10:00 8.6 6.2 85   LegendMM LegendMM LegendMM 99.57     LegendNANA
11:00 9.4 3.6 67   LegendMM LegendMM LegendMM 99.67     LegendNANA
12:00 9.0 2.6 64   LegendMM LegendMM LegendMM 99.77     LegendNANA
13:00 8.4 3.3 70   LegendMM LegendMM LegendMM 99.82     LegendNANA
14:00 8.0 3.3 72   LegendMM LegendMM LegendMM 99.90     LegendNANA
15:00 7.1 3.2 76   LegendMM LegendMM LegendMM 100.01     LegendNANA
16:00 6.3 3.1 80   LegendMM LegendMM LegendMM 100.16     LegendNANA
17:00 6.5 2.0 73   LegendMM LegendMM LegendMM 100.24     LegendNANA
18:00 6.2 2.1 75   LegendMM LegendMM LegendMM 100.39     LegendNANA
19:00 6.2 1.9 74   LegendMM LegendMM LegendMM 100.54     LegendNANA
20:00 6.1 1.8 74   LegendMM LegendMM LegendMM 100.67     LegendNANA
21:00 5.9 1.8 75   LegendMM LegendMM LegendMM 100.74     LegendNANA
22:00 5.6 1.5 75   LegendMM LegendMM LegendMM 100.79     LegendNANA
23:00 5.2 1.7 78   LegendMM LegendMM LegendMM 100.85     LegendNANA

Notes on Data Quality.

Legend

  • E = Estimated
  • M = Missing
  • NA = Not Available*
  • [empty] = Indicates an unobserved value
Date modified: